Skip Page Navigation
NASA JPL Caltech
NASA Logo - Jet Propulsion Laboratory + View the NASA Portal
+ Center for Near-Earth Object Studies
JPL Home Earth Solar System Stars & Galaxies Technology
JPL Solar System Dynamics
BODIES ORBITS EPHEMERIDES TOOLS PHYSICAL DATA DISCOVERY FAQ SITE MAP
IMPORTANT: The SSD Announcement email list is now available. Major changes are coming in the near future, including possible hostname and/or URL changes. To be notified of such changes, subscribe to this email list.

Please visit this page for more details.


JPL Small-Body Database Browser
Search: [ help ]  
11101 Ceskafilharmonie (1995 SH)
Classification: Main-belt Asteroid          SPK-ID: 2011101
Ephemeris | Orbit Diagram | Orbital Elements | Mission Design | Physical Parameters | Discovery Circumstances | Close-Approach Data ]

[ show orbit diagram ]
Orbital Elements at Epoch 2459000.5 (2020-May-31.0) TDB
Reference: JPL 21 (heliocentric ecliptic J2000)
 Element Value Uncertainty (1-sigma)   Units 
e .09064191242586807 4.9084e-08  
a 2.623305291336483 1.0527e-08 au
q 2.385523882852846 1.2973e-07 au
i 13.50880925012471 5.3925e-06 deg
node 188.5541020698955 1.6401e-05 deg
peri 10.21812364541083 2.7032e-05 deg
M 93.49184769653472 2.0426e-05 deg
tp 2458597.464851989765
(2019-Apr-23.96485199)
8.8071e-05 TDB
period 1551.92839652331
4.25
9.3414e-06
2.558e-08
d
yr
n .2319694650903263 1.3963e-09 deg/d
Q 2.861086699820121 1.1481e-08 au
  Orbit Determination Parameters
   # obs. used (total)      1529  
   data-arc span      8647 days (23.67 yr)  
   first obs. used      1995-09-07  
   last obs. used      2019-05-11  
   planetary ephem.      DE431  
   SB-pert. ephem.      SB431-N16  
   condition code      0  
   norm. resid. RMS      .5288  
   source      ORB  
   producer      Otto Matic  
   solution date      2019-May-30 01:53:13  

Additional Information
 Earth MOID = 1.38536 au 
 Jupiter MOID = 2.09441 au 
 T_jup = 3.359 
[ show covariance matrix ]

Ephemeris | Orbit Diagram | Orbital Elements | Mission Design | Physical Parameters | Discovery Circumstances | Close-Approach Data ]

Physical Parameter Table
Parameter Symbol Value Units Sigma Reference Notes
absolute magnitude H 13.8   n/a MPO473917  
diameter diameter 5.367 km 0.104 urn:nasa:pds:neowise_diameters_albedos::2.0[mainbelt] (http://adsabs.harvard.edu/abs/2011ApJ...741...68M)  
geometric albedo albedo 0.154   0.013 urn:nasa:pds:neowise_diameters_albedos::2.0[mainbelt] (http://adsabs.harvard.edu/abs/2011ApJ...741...68M)  

11101 Českáfilharmonie           Discovered 1995 Sept. 17 by L. Sarounova at Ondrejov.
The Czech Philharmonic Orchestra is known for its spontaneous musicality and distinctive interpretive style. Its first concert was conducted by A. Dvořák in 1896 and its current high level was developed by chief conductors V. Talich, K. Ančerl and V. Neumann.
NOTE: some special characters may not display properly (any characters within {} are an attempt to place the proper accent above a character)
Reference: 20010109/MPCPages.arcLast Updated: 2009-05-11

[ hide close-approach data ]
Close-Approach Data   ...sorted by Date/Time (TDB)
Date/Time (TDB) Time Uncertainty
(days_HH:MM)
Body Nominal Distance (au) Minimum Distance (au) Maximum Distance (au) V-relative (km/s) V-infinity (km/s) JD (TDB) Time Uncertainty (minutes) Semi-major axis (km) Semi-minor axis (km) range-LOV angle (deg) N-sigma BP Orbit Ref. Reference Modified
1931-Jun-21 08:47 < 00:01 Inter 0.0145426323248482 0.0145413105338029 0.0145439620567273 7.94802183097589 7.94802170432255 2426513.865918114 0.488733810848932 673.647539027681 39.7309852974682 85.4948289846899 54572.4010319603 T 21 CATAB v2.0e-lin.ifort 2019-May-30 01:53:21 2019-May-30 01:53
Ephemeris | Orbit Diagram | Orbital Elements | Mission Design | Physical Parameters | Discovery Circumstances | Close-Approach Data ]
ABOUT SSD CREDITS/AWARDS PRIVACY/COPYRIGHT GLOSSARY LINKS
FirstGov 2020-Feb-19 16:39 UT
(server date/time)  
NASA Home Page
Site Manager:   Ryan S. Park
Webmaster  Alan B. Chamberlin